Huntsville, AL

8:47 PM CST on November 21, 2017 (GMT -0600)
Huntsville International

Weather History for KHSV - July, 2013

Change the Weather History Date:

Tuesday, July 30, 2013

  Actual Average Record
Temperature  
Mean Temperature 78 °F 81 °F  
Max Temperature 90 °F 91 °F 101 °F (1930)
Min Temperature 65 °F 70 °F 56 °F (2014)
Degree Days  
Heating Degree Days 0 0  
Month to date heating degree days 0 0  
Since 1 June heating degree days 0 1  
Since 1 July heating degree days 0 0  
Cooling Degree Days 13 16  
Month to date cooling degree days 407 472  
Year to date cooling degree days 1064 1115  
Since 1 June cooling degree days 831 852  
Growing Degree Days 27 (Base 50)    
Moisture  
Dew Point 66 °F    
Average Humidity 70    
Maximum Humidity 93    
Minimum Humidity 47    
Precipitation  
Precipitation 0.10 in 0.12 in 1.42 in (1913)
Month to date precipitation 9.32 3.93  
Year to date precipitation 40.65 32.59  
Snow  
Snow 0.00 in - - ()
Month to date snowfall 0.0  
Since 1 June snowfall 0.0  
Since 1 July snowfall 0.0  
Snow Depth 0.00 in    
Sea Level Pressure  
Sea Level Pressure 30.14 in    
Wind  
Wind Speed 5 mph (ESE)    
Max Wind Speed 14 mph    
Max Gust Speed 18 mph    
Visibility 10 miles    
Events Rain    
T = Trace of Precipitation, MM = Missing Value Source: NWS Daily Summary

Daily Weather History Graph

Daily Weather History Graph

Search for Another Location

Airport or City:

Trip Planner

Search our weather history database for the weather conditions in past years. The results will help you decide how hot, cold, wet, or windy it might be!

Date:

Astronomy

Jul. 30, 2013 Rise Set
Actual Time 5:55 AM CDT 7:50 PM CDT
Civil Twilight 5:28 AM CDT 8:18 PM CDT
Nautical Twilight 4:54 AM CDT 8:51 PM CDT
Astronomical Twilight 4:18 AM CDT 9:27 PM CDT
Moon 12:11 AM CDT (7/30) 2:11 PM CDT (7/30)
Length of Visible Light 14h 50m
Length of Day
13h 54m
Last Quarter, 41% of the Moon is Illuminated
Jul 30
Last Quarter
Aug 6
New
Aug 14
First Quarter
Aug 20
Full
Aug 28
Last Quarter

Hourly Weather History & Observations

Time (CDT) Temp. Heat Index Dew Point Humidity Pressure Visibility Wind Dir Wind Speed Gust Speed Precip Events Conditions
12:53 AM 64.9 °F - 60.1 °F 84% 30.16 in 10.0 mi Calm Calm - N/A   Clear
1:53 AM 64.9 °F - 61.0 °F 87% 30.16 in 10.0 mi ESE 3.5 mph - N/A   Clear
2:53 AM 64.9 °F - 60.1 °F 84% 30.16 in 10.0 mi East 4.6 mph - N/A   Clear
3:53 AM 64.9 °F - 61.0 °F 87% 30.16 in 10.0 mi East 4.6 mph - N/A   Partly Cloudy
4:53 AM 64.9 °F - 61.0 °F 87% 30.18 in 10.0 mi ENE 3.5 mph - N/A   Clear
5:53 AM 64.9 °F - 62.1 °F 90% 30.18 in 10.0 mi East 8.1 mph - N/A   Partly Cloudy
6:53 AM 66.0 °F - 63.0 °F 90% 30.17 in 10.0 mi East 5.8 mph - N/A   Scattered Clouds
7:53 AM 71.1 °F - 64.0 °F 78% 30.20 in 10.0 mi Calm Calm - N/A   Scattered Clouds
8:53 AM 75.0 °F - 64.9 °F 71% 30.19 in 10.0 mi South 4.6 mph - N/A   Scattered Clouds
9:53 AM 79.0 °F - 64.0 °F 60% 30.18 in 10.0 mi Calm Calm - N/A   Scattered Clouds
10:53 AM 82.0 °F 83.4 °F 64.0 °F 54% 30.18 in 10.0 mi Calm Calm - N/A   Scattered Clouds
11:53 AM 86.0 °F 88.2 °F 66.0 °F 51% 30.17 in 10.0 mi Variable 3.5 mph - N/A   Scattered Clouds
12:53 PM 89.1 °F 92.9 °F 68.0 °F 50% 30.15 in 10.0 mi WSW 5.8 mph - N/A   Scattered Clouds
1:53 PM 89.1 °F 92.1 °F 66.9 °F 48% 30.13 in 10.0 mi SSW 8.1 mph - N/A   Mostly Cloudy
2:53 PM 88.0 °F 91.4 °F 68.0 °F 51% 30.12 in 10.0 mi WSW 5.8 mph - N/A   Overcast
3:53 PM 88.0 °F 92.1 °F 69.1 °F 53% 30.10 in 10.0 mi South 6.9 mph - N/A   Overcast
4:53 PM 88.0 °F 92.1 °F 69.1 °F 53% 30.09 in 10.0 mi South 4.6 mph - N/A   Overcast
5:53 PM 86.0 °F 90.7 °F 70.0 °F 59% 30.08 in 10.0 mi SE 5.8 mph - N/A   Overcast
6:53 PM 84.9 °F 90.1 °F 71.1 °F 63% 30.07 in 10.0 mi SE 4.6 mph - N/A   Overcast
7:53 PM 81.0 °F 86.7 °F 75.0 °F 82% 30.09 in 7.0 mi Calm Calm - 0.01 in Rain Light Rain
8:53 PM 77.0 °F - 73.0 °F 88% 30.10 in 10.0 mi NE 10.4 mph - 0.01 in   Overcast
9:53 PM 75.0 °F - 72.0 °F 90% 30.09 in 9.0 mi ENE 10.4 mph - 0.05 in Rain Light Rain
10:53 PM 73.9 °F - 72.0 °F 93% 30.13 in 5.0 mi North 8.1 mph - 0.01 in Rain Rain
11:53 PM 73.9 °F - 72.0 °F 93% 30.09 in 9.0 mi East 10.4 mph - 0.02 in   Overcast